Theta_e
322 325 325 327 330 325 326 323 321 321 321 320 319 321 321 322 325 327 319 320 324 324 327 325 328 329 328 330 332 333 334 334 334 335 334 334 334 335 335 335 336 337 337 338 339 339 338 337 336
322 323 325 329 328 329 325 321 320 321 319 318 318 320 320 322 320 316 316 317 321 322 323 322 324 326 326 328 327 329 332 333 333 333 332 331 331 331 331 331 329 330 332 333 334 335 335 335 338
321 322 328 330 328 324 322 320 319 318 317 318 319 317 318 320 318 316 315 316 319 320 320 320 322 323 324 324 324 325 328 327 328 329 327 325 327 327 326 327 326 327 328 328 331 330 329 328 328
322 322 322 321 322 321 320 319 318 317 318 317 319 318 315 314 317 317 311 315 318 318 318 319 320 320 320 319 319 319 320 320 323 320 318 316 318 317 318 317 317 316 317 319 323 323 323 325 327
319 323 325 325 322 320 319 318 318 318 317 316 317 318 317 313 314 312 309 313 316 317 316 315 317 317 316 316 316 315 314 313 315 314 312 310 310 310 310 310 310 311 311 311 314 310 305 306 311
322 321 324 324 324 321 319 318 318 317 317 316 316 315 316 313 311 308 307 308 313 315 314 310 313 313 312 311 311 310 310 309 307 305 306 303 301 298 299 299 304 303 301 304 305 301 300 298 299
324 327 326 324 323 322 320 317 317 317 317 316 317 317 313 310 310 308 306 306 306 308 309 307 306 306 305 304 303 303 302 301 298 297 296 296 297 296 296 296 296 296 297 297 297 297 297 297 297
319 321 322 322 322 322 319 317 317 317 317 315 315 315 316 311 309 307 305 304 304 304 304 304 304 302 300 298 297 298 297 296 296 296 297 300 301 299 296 295 295 296 296 297 298 298 297 297 301
321 321 323 324 323 322 316 317 314 313 314 315 314 314 310 310 308 305 304 304 303 303 303 303 303 302 302 300 295 295 295 295 298 298 299 299 298 296 297 296 296 297 298 303 303 303 303 300 298
321 326 325 321 319 319 319 316 316 314 313 314 314 311 309 309 306 305 304 303 303 302 302 301 302 301 301 300 297 299 298 299 298 297 297 297 297 296 297 296 296 295 296 297 298 299 298 296 297
321 322 321 320 319 317 317 316 316 316 315 314 313 312 307 307 305 304 304 304 304 303 301 301 301 301 300 298 299 298 298 297 297 296 296 296 296 296 296 295 295 295 295 294 294 294 294 295 295
320 320 320 320 317 317 316 317 316 314 314 316 316 314 307 307 304 304 305 306 305 304 302 301 300 300 299 298 298 299 298 298 297 296 295 296 296 295 295 294 294 294 294 293 293 293 293 294 294
319 319 319 318 317 316 316 315 315 314 314 313 313 312 309 307 306 306 306 307 307 305 303 301 299 299 299 299 298 299 298 297 297 296 294 295 294 294 294 294 294 294 293 292 292 292 293 293 293
318 318 317 317 317 317 316 315 316 315 314 314 314 310 309 308 308 308 307 307 307 306 304 301 299 299 299 299 298 298 298 297 296 296 294 293 293 293 293 293 293 293 292 291 291 292 292 292 293
316 315 316 316 316 316 317 315 315 314 315 313 313 312 310 309 310 308 308 307 307 307 304 301 299 298 298 298 298 298 297 296 295 295 294 292 292 293 292 292 292 291 291 290 290 291 291 291 292
316 317 317 318 317 315 314 315 316 314 314 314 311 311 311 310 309 310 310 308 307 306 303 300 298 298 298 297 297 297 296 295 294 294 293 292 292 292 291 291 291 291 290 290 290 290 291 290 291
316 318 318 319 317 315 314 316 315 316 315 313 311 310 311 311 310 311 311 309 307 306 302 300 298 298 297 297 296 296 296 294 293 292 292 291 291 291 290 291 290 289 289 289 289 290 289 290 290
318 318 317 316 317 315 314 314 314 313 313 312 313 312 311 311 310 311 310 309 307 305 301 299 297 297 296 296 295 295 294 293 292 292 291 291 290 290 289 289 289 289 288 288 289 289 289 289 290
316 316 316 316 316 315 315 315 314 313 313 313 313 313 312 310 310 312 309 309 307 304 300 298 297 296 296 295 294 293 293 292 292 291 290 290 290 289 289 289 288 288 288 288 288 288 289 289 289
315 314 315 315 315 314 314 315 314 313 313 314 313 313 312 310 310 306 307 308 306 303 300 298 297 296 295 295 293 293 292 292 291 290 290 289 289 288 288 288 288 288 287 287 287 288 289 288 290
315 314 314 314 314 312 312 313 313 313 313 312 312 312 309 309 309 305 303 305 304 301 299 298 296 296 295 294 293 293 293 292 291 290 290 289 289 288 288 288 288 287 286 286 287 287 288 288 287
314 314 315 315 315 316 314 316 313 313 312 311 311 311 308 307 309 305 302 302 301 300 298 297 296 296 295 294 293 293 292 290 291 291 290 289 289 288 288 288 287 286 286 286 286 286 287 286 286
315 312 313 315 315 315 315 314 313 312 312 311 310 312 310 309 306 304 302 302 301 300 298 297 296 295 294 294 293 293 291 291 291 290 290 289 288 287 288 287 286 286 285 285 285 285 285 285 286
310 312 312 312 311 314 312 313 313 312 312 312 310 310 309 307 305 303 302 302 301 300 298 297 296 295 294 293 292 292 291 291 291 290 289 288 287 287 287 286 286 285 284 284 284 284 284 283 283
310 314 315 316 315 317 312 312 314 315 311 310 310 309 308 307 304 302 300 299 299 298 297 297 296 295 294 293 292 291 291 291 291 290 289 287 287 286 286 286 285 284 284 283 282 282 281 282 282
310 313 317 316 314 314 310 314 314 313 312 310 309 308 308 306 304 302 300 299 299 298 297 296 295 294 294 292 292 291 290 290 290 290 289 288 287 286 285 285 285 283 282 281 281 280 280 280 281
312 312 314 315 308 314 314 312 312 313 312 310 308 307 307 306 305 304 301 299 299 297 296 295 295 294 293 292 291 290 290 290 289 289 288 288 286 285 285 284 284 283 281 280 279 279 279 279 279
309 309 313 314 312 311 312 312 314 314 314 310 310 308 307 305 305 303 302 300 299 298 296 295 294 294 293 292 290 290 289 289 289 288 287 286 285 285 285 284 283 281 280 279 279 278 278 278 278
306 309 309 310 316 313 313 314 312 312 313 311 309 310 310 307 304 302 301 301 300 298 296 295 294 293 293 291 290 289 288 288 287 287 286 286 285 284 284 283 282 280 279 279 278 277 277 276 276
308 309 310 312 311 310 313 314 312 310 308 307 308 309 308 307 306 303 301 299 299 297 296 294 293 293 292 291 289 288 287 287 286 285 285 284 283 283 283 281 280 279 278 277 277 276 275 274 274
Wind_Speed
4 7 7 4 1 3 5 5 4 5 0 4 7 4 2 3 2 2 10 9 10 11 7 8 9 8 8 9 7 6 5 4 4 7 6 5 6 7 8 10 11 10 9 9 9 8 6 6 8
3 4 4 4 2 4 2 7 4 4 6 6 7 5 2 2 6 9 11 12 11 12 9 8 10 10 9 8 7 8 7 7 7 7 6 4 6 7 6 4 5 5 8 8 9 10 11 10 10
1 3 2 3 4 6 3 4 7 8 6 4 2 2 5 3 7 17 11 17 12 12 7 11 11 11 12 11 10 9 9 6 7 8 8 8 9 10 9 8 7 6 7 10 11 11 11 12 10
4 4 4 2 10 5 4 4 10 8 2 4 1 3 4 4 4 13 17 16 14 12 8 12 9 10 11 11 11 11 11 10 11 9 10 10 10 10 10 9 10 10 10 11 11 11 13 14 14
3 4 3 6 10 1 5 4 7 8 8 7 4 3 3 7 10 14 19 17 15 13 9 11 11 11 11 11 10 10 10 10 10 9 9 9 9 9 10 10 11 11 11 11 11 11 13 14 14
3 2 4 6 6 4 4 5 4 7 8 6 6 5 3 15 16 15 16 15 15 16 13 10 14 13 11 9 8 8 8 7 6 6 6 7 9 9 8 9 10 10 12 12 12 13 13 14 15
3 2 6 10 8 5 4 7 5 7 8 8 3 3 4 12 17 18 17 15 14 15 15 11 11 10 8 8 8 7 6 5 5 6 7 9 8 8 8 8 9 9 10 11 12 13 14 15 15
3 2 6 6 4 5 4 5 3 6 6 4 6 6 3 14 21 20 17 16 15 14 14 14 13 10 10 8 8 9 8 7 8 9 11 12 10 9 9 10 11 12 12 12 13 13 13 12 13
2 2 5 8 0 1 5 4 6 2 2 3 7 2 4 26 23 20 19 18 18 18 17 17 15 14 11 8 8 8 9 8 8 8 9 8 4 6 7 11 13 13 15 13 15 15 15 15 15
3 3 5 2 6 4 2 7 5 3 6 6 5 7 13 24 25 21 22 22 24 23 21 19 18 17 14 9 9 7 7 6 5 4 4 5 3 6 7 9 11 13 14 14 16 16 16 18 18
5 5 4 3 3 5 5 6 6 6 8 10 12 12 15 19 23 21 23 26 29 26 24 23 21 19 17 15 13 11 9 7 6 5 5 5 3 5 6 9 11 13 15 17 18 18 18 20 20
4 10 11 4 2 1 4 3 6 10 15 2 2 2 14 17 16 25 25 28 28 30 28 26 24 23 21 20 17 14 12 10 8 7 6 5 3 4 5 8 10 12 15 16 18 18 19 19 19
8 9 9 7 5 5 8 11 7 13 11 13 11 6 11 14 20 26 28 29 30 32 32 31 26 25 23 22 17 15 14 12 11 9 8 7 4 3 3 6 8 11 13 16 17 17 18 19 19
6 8 11 8 9 7 7 7 5 10 14 15 11 11 12 14 19 22 28 30 34 33 34 32 30 27 25 23 20 19 15 15 13 11 9 8 5 3 2 4 7 10 14 16 16 16 16 17 17
4 8 10 13 10 7 3 10 14 20 7 9 10 11 12 15 20 26 32 31 33 34 34 33 31 28 26 24 22 20 19 16 16 14 11 9 6 3 1 2 4 7 11 12 13 14 15 18 19
4 5 5 5 10 7 10 12 10 16 12 16 11 10 10 12 18 26 28 29 31 30 34 33 31 30 27 26 25 22 21 19 17 15 13 10 8 5 2 0 4 8 11 13 13 14 17 19 20
9 6 9 10 10 7 9 9 11 1 2 9 10 12 13 12 16 27 31 28 31 33 34 34 31 32 30 26 25 23 21 20 18 17 14 12 9 5 2 1 4 8 10 12 13 13 16 19 23
7 6 10 13 7 7 8 17 13 12 9 13 16 15 14 14 15 25 33 33 33 34 34 34 33 31 29 27 25 23 22 21 20 18 17 14 10 6 3 1 3 7 10 11 11 14 15 17 20
15 16 16 22 11 10 15 19 16 11 14 15 17 19 13 12 9 26 34 33 33 34 35 35 34 32 32 31 29 26 27 25 22 19 18 15 11 8 5 2 4 7 9 10 11 13 16 20 19
9 13 20 18 11 7 9 14 13 10 16 22 19 20 16 7 6 10 26 31 34 37 37 36 36 35 35 35 33 23 27 23 21 19 18 16 13 11 7 4 4 6 8 9 10 11 14 16 9
12 10 15 15 9 6 6 7 12 9 17 16 17 21 9 10 10 9 11 24 31 35 39 40 38 38 37 34 31 19 25 19 21 21 20 18 16 11 7 5 4 6 9 10 10 11 12 14 18
21 9 9 11 6 6 4 15 8 6 12 10 16 18 9 11 8 9 10 17 28 30 34 36 37 38 38 35 36 37 34 26 26 32 24 21 18 13 10 6 6 7 8 10 10 10 13 14 15
6 2 2 4 6 6 5 9 5 9 9 11 13 16 8 10 12 11 13 23 27 32 36 37 37 38 37 40 42 40 34 28 23 23 26 23 17 14 10 7 7 8 9 10 11 14 16 14 14
3 1 3 3 2 9 11 12 3 6 8 6 9 14 11 9 10 9 15 25 26 33 34 36 38 38 39 41 41 41 38 30 32 32 28 23 18 14 11 9 8 9 11 10 10 14 17 17 16
4 3 3 4 1 15 10 10 16 5 8 11 13 13 9 11 11 10 13 13 23 30 34 36 36 34 38 41 42 41 39 37 37 36 32 26 23 19 14 10 11 12 12 12 14 15 16 16 17
9 9 6 7 10 21 2 9 9 11 12 10 14 10 9 10 9 10 11 13 21 27 32 34 36 34 38 42 42 42 40 40 39 37 33 29 25 20 16 16 15 13 12 13 13 14 15 15 17
6 6 4 1 2 4 12 14 11 11 11 10 10 8 9 9 10 10 9 15 21 26 34 38 36 36 39 42 39 40 40 39 39 35 32 29 25 21 19 17 15 14 13 13 13 14 15 15 17
4 1 2 2 2 7 18 13 16 13 18 9 6 7 7 9 8 9 9 11 22 26 30 33 33 36 36 38 39 38 40 40 38 35 34 31 26 22 19 17 15 13 14 13 14 13 14 15 18
2 4 5 1 5 7 10 15 4 6 5 8 8 5 6 9 10 10 9 16 25 27 31 32 35 36 39 40 38 36 39 40 38 38 35 32 28 24 21 19 17 16 14 13 14 14 15 18 22
6 11 12 10 16 4 12 23 5 5 9 10 8 8 7 8 10 10 11 12 20 24 27 33 32 35 38 40 39 39 39 41 40 38 34 30 27 23 20 18 16 15 14 14 14 14 16 19 21
Wind_Direction
35 356 319 283 289 212 258 153 38 102 248 51 307 68 355 16 342 206 142 135 128 115 106 111 112 114 128 127 119 119 114 117 91 80 78 83 63 57 50 49 50 42 39 32 26 17 356 336 334
77 314 270 277 247 260 316 97 146 156 71 74 22 31 349 61 94 120 140 154 141 123 135 116 106 100 111 120 133 142 145 114 111 103 96 91 77 66 66 49 33 26 23 21 12 11 13 12 6
14 302 280 204 235 262 31 120 147 87 91 126 170 54 338 78 100 141 148 151 145 128 145 128 116 105 100 98 97 100 107 110 89 97 87 79 76 73 63 54 36 11 354 15 15 6 359 339 336
320 204 267 259 268 306 30 85 109 113 98 331 253 197 83 95 122 155 154 152 149 139 167 139 121 108 107 106 105 104 105 99 100 92 85 76 75 69 63 53 41 27 20 14 9 346 337 327 325
244 264 258 230 251 158 102 341 124 162 161 170 183 198 171 165 133 152 157 158 158 156 169 158 137 127 120 115 112 107 102 98 101 94 89 80 68 59 52 42 33 28 22 18 9 350 338 330 325
278 229 280 261 321 121 111 157 187 193 182 99 169 282 149 158 156 160 160 162 164 169 175 168 156 146 142 141 135 128 118 115 114 101 86 69 62 55 51 42 35 27 20 16 8 359 350 337 328
256 286 259 283 306 308 164 130 212 216 214 176 145 252 118 161 171 167 168 169 172 192 178 179 182 182 188 186 176 170 159 144 125 114 98 90 75 69 55 44 36 29 23 12 4 357 351 347 345
320 285 274 272 276 328 100 146 72 263 242 8 130 219 202 176 170 168 172 178 180 194 187 182 195 181 186 189 189 177 163 139 114 101 92 73 48 45 39 36 34 31 24 17 11 6 0 357 359
235 270 265 272 318 311 113 217 157 118 255 208 183 352 105 150 162 168 181 187 191 198 196 198 195 184 198 190 174 156 132 114 100 88 87 80 64 48 28 27 31 25 24 22 10 5 360 356 353
227 238 264 33 336 292 183 198 223 186 224 241 202 133 133 152 165 179 187 196 199 198 198 202 198 191 193 193 182 173 149 145 145 134 112 108 74 54 48 32 24 23 15 15 10 7 359 352 350
226 232 292 298 310 338 277 275 209 242 251 227 215 204 168 169 182 195 201 202 201 201 204 202 204 199 198 188 193 190 182 177 172 158 144 125 107 69 44 28 18 13 6 5 360 356 352 349 345
270 242 250 289 120 258 238 257 263 223 229 267 11 341 165 180 191 200 206 206 202 199 204 205 203 199 199 198 197 191 192 187 195 182 163 150 140 77 45 24 16 8 2 359 355 352 347 344 343
237 262 280 265 202 230 280 261 248 255 247 237 241 173 176 192 203 208 209 209 206 202 201 201 198 200 197 202 190 193 193 185 195 191 174 170 159 98 51 28 15 3 355 354 351 348 345 342 338
2 309 293 279 232 216 226 263 231 240 233 243 243 203 203 199 205 207 209 210 207 204 199 197 197 197 197 195 188 191 190 188 186 195 184 174 165 137 57 24 12 358 349 351 350 346 338 334 330
287 304 277 252 223 235 171 279 231 246 254 236 240 231 210 212 210 210 211 208 205 204 196 193 193 193 196 189 189 191 189 190 192 199 194 183 179 170 118 23 6 343 342 345 342 340 337 330 331
233 240 281 268 202 160 136 260 234 246 222 235 222 242 238 222 216 220 218 211 207 200 193 190 188 190 193 190 188 191 193 190 194 198 194 189 184 186 176 28 350 337 341 345 343 343 330 326 326
226 250 236 273 180 134 179 256 265 271 312 267 230 230 235 235 218 211 211 210 203 201 190 187 186 188 189 189 192 190 193 188 193 193 192 194 194 191 197 324 338 340 345 347 343 333 322 324 324
255 247 283 278 200 198 207 250 262 281 257 256 264 256 244 240 231 202 200 201 198 196 189 187 186 188 186 185 184 185 189 189 197 196 191 199 200 197 204 271 343 341 344 342 335 317 319 318 321
254 264 261 271 265 188 230 246 252 248 272 263 261 265 256 252 241 201 188 192 189 188 183 184 184 185 185 183 179 184 191 191 198 196 198 199 197 200 212 242 325 336 331 324 317 312 312 317 331
276 276 272 275 286 179 259 260 264 255 258 259 264 266 267 240 233 152 167 183 184 179 182 184 188 190 189 191 192 189 197 201 202 197 202 201 202 207 212 238 299 311 305 306 308 310 309 312 341
238 244 262 265 282 217 271 259 250 243 252 264 264 258 239 216 216 168 160 174 174 175 181 185 189 192 192 194 192 182 179 176 180 194 201 200 207 211 220 244 287 292 300 302 301 306 307 299 304
268 239 263 271 270 243 88 290 224 240 266 238 254 267 226 215 185 166 164 168 173 181 184 187 192 193 195 193 191 189 179 171 198 202 199 201 205 207 219 239 267 279 285 285 294 291 277 281 286
258 71 296 285 269 312 218 276 244 188 242 237 247 259 248 226 176 166 173 173 180 184 188 191 194 196 195 196 199 199 200 203 204 195 190 197 202 210 220 231 248 262 266 270 276 276 281 280 283
128 305 247 249 230 256 203 217 206 186 211 219 232 252 244 163 162 173 169 170 180 188 190 193 196 198 199 201 204 205 202 190 180 180 192 197 201 206 212 218 236 249 259 272 272 266 272 282 283
174 158 296 301 268 264 185 237 249 224 181 196 219 239 214 163 166 170 166 171 178 186 190 193 196 199 201 202 207 211 207 197 190 195 197 193 194 200 204 212 227 241 253 257 266 276 279 282 280
180 176 174 225 258 278 130 252 254 222 230 215 210 233 155 161 162 181 179 183 188 186 190 192 198 199 201 204 207 212 211 203 206 208 205 203 202 200 197 212 230 242 255 262 267 273 276 278 276
182 196 211 253 44 313 269 279 279 231 232 233 210 158 168 173 181 181 179 183 187 191 194 196 198 201 201 205 205 208 209 205 204 203 206 205 203 201 205 217 230 244 256 261 265 270 276 278 280
189 261 119 231 228 240 277 288 271 270 260 225 159 204 210 197 183 193 190 186 195 200 199 200 202 202 201 204 204 203 205 207 207 204 203 204 203 205 211 223 235 244 252 262 268 272 275 274 276
167 233 226 236 187 222 264 271 281 145 155 167 205 203 208 194 202 201 195 197 195 198 198 200 202 202 203 204 201 200 203 204 205 207 206 204 202 204 211 223 233 242 253 260 262 268 274 271 273
232 215 203 222 240 236 236 259 195 327 132 130 151 183 212 199 198 199 202 190 193 196 194 198 201 202 203 202 200 201 200 200 201 204 203 200 199 204 213 222 231 242 252 256 259 269 269 269 276